Time,TemperatureF,DewpointF,PressureIn,WindDirection,WindDirectionDegrees,WindSpeedMPH,WindSpeedGustMPH,Humidity,HourlyPrecipIn,Conditions,Clouds,dailyrainin,SoftwareType,DateUTC
2013-01-10 00:00:00,41.8,33.1,30.25,WSW,253,6.0,12.0,71,0.00,RA,,0.00,WeatherDisplay:10.37,2013-01-10 05:00:00,
2013-01-10 00:03:00,41.8,33.1,30.25,SW,236,8.4,11.5,71,0.00,RA,,0.00,WeatherDisplay:10.37,2013-01-10 05:03:00,
2013-01-10 00:08:00,41.7,33.0,30.25,West,272,7.1,11.5,71,0.00,RA,,0.00,WeatherDisplay:10.37,2013-01-10 05:08:00,
2013-01-10 00:13:00,41.6,32.9,30.26,West,269,5.6,6.9,71,0.00,CLR,,0.00,WeatherDisplay:10.37,2013-01-10 05:13:00,
2013-01-10 00:18:00,41.3,32.6,30.26,WSW,255,4.6,8.1,71,0.00,CLR,,0.00,WeatherDisplay:10.37,2013-01-10 05:18:00,
2013-01-10 00:23:00,41.2,32.5,30.26,SW,236,6.2,8.1,71,0.00,CLR,,0.00,WeatherDisplay:10.37,2013-01-10 05:23:00,
2013-01-10 00:28:00,41.2,32.5,30.26,West,267,5.0,9.2,71,0.00,CLR,,0.00,WeatherDisplay:10.37,2013-01-10 05:28:00,
2013-01-10 00:33:00,40.9,32.6,30.27,WSW,243,4.4,8.1,72,0.00,CLR,,0.00,WeatherDisplay:10.37,2013-01-10 05:33:00,
2013-01-10 00:38:00,40.7,32.4,30.26,WSW,242,6.0,6.0,72,0.00,CLR,,0.00,WeatherDisplay:10.37,2013-01-10 05:38:00,
2013-01-10 00:43:00,40.7,32.4,30.27,West,275,1.5,3.5,72,0.00,CLR,,0.00,WeatherDisplay:10.37,2013-01-10 05:43:00,
2013-01-10 00:48:00,40.5,32.2,30.27,SW,236,1.9,5.0,72,0.00,CLR,,0.00,WeatherDisplay:10.37,2013-01-10 05:48:00,
2013-01-10 00:53:00,40.2,31.9,30.27,WSW,257,4.5,5.8,72,0.00,CLR,,0.00,WeatherDisplay:10.37,2013-01-10 05:53:00,
2013-01-10 00:58:00,39.8,31.8,30.28,SW,227,1.9,3.5,73,0.00,CLR,,0.00,WeatherDisplay:10.37,2013-01-10 05:58:00,
2013-01-10 01:03:00,39.6,31.7,30.28,WSW,250,3.2,3.5,73,0.00,CLR,,0.00,WeatherDisplay:10.37,2013-01-10 06:03:00,
2013-01-10 01:08:00,39.4,31.5,30.28,West,273,1.8,2.3,73,0.00,CLR,,0.00,WeatherDisplay:10.37,2013-01-10 06:08:00,
2013-01-10 01:13:00,39.1,31.5,30.28,WSW,247,2.7,3.5,74,0.00,CLR,,0.00,WeatherDisplay:10.37,2013-01-10 06:13:00,
2013-01-10 01:18:00,39.1,31.2,30.29,SSW,204,3.8,3.8,73,0.00,CLR,,0.00,WeatherDisplay:10.37,2013-01-10 06:18:00,
2013-01-10 01:23:00,38.9,31.0,30.29,WSW,248,1.8,3.5,73,0.00,CLR,,0.00,WeatherDisplay:10.37,2013-01-10 06:23:00,
2013-01-10 01:28:00,38.8,30.9,30.30,WSW,240,2.0,3.5,73,0.00,CLR,,0.00,WeatherDisplay:10.37,2013-01-10 06:28:00,
2013-01-10 01:33:00,38.7,30.8,30.30,WSW,246,3.0,4.6,73,0.00,CLR,,0.00,WeatherDisplay:10.37,2013-01-10 06:33:00,
2013-01-10 01:38:00,38.7,30.8,30.31,West,259,1.8,4.6,73,0.00,CLR,,0.00,WeatherDisplay:10.37,2013-01-10 06:38:00,
2013-01-10 01:43:00,38.5,30.6,30.31,WSW,256,1.4,3.5,73,0.00,CLR,,0.00,WeatherDisplay:10.37,2013-01-10 06:43:00,
2013-01-10 01:48:00,38.0,30.1,30.32,SW,236,1.5,3.5,73,0.00,CLR,,0.00,WeatherDisplay:10.37,2013-01-10 06:48:00,
2013-01-10 01:53:00,37.7,30.2,30.32,WSW,254,1.7,3.5,74,0.00,CLR,,0.00,WeatherDisplay:10.37,2013-01-10 06:53:00,
2013-01-10 01:58:00,37.7,30.2,30.32,WSW,245,2.9,5.8,74,0.00,CLR,,0.00,WeatherDisplay:10.37,2013-01-10 06:58:00,
2013-01-10 02:03:00,38.0,30.1,30.33,WSW,240,3.0,5.8,73,0.00,CLR,,0.00,WeatherDisplay:10.37,2013-01-10 07:03:00,
2013-01-10 02:08:00,38.1,29.9,30.33,West,259,3.4,4.6,72,0.00,CLR,,0.00,WeatherDisplay:10.37,2013-01-10 07:08:00,
2013-01-10 02:13:00,38.0,30.1,30.33,WSW,252,5.0,6.9,73,0.00,CLR,,0.00,WeatherDisplay:10.37,2013-01-10 07:13:00,
2013-01-10 02:18:00,38.4,29.8,30.33,WSW,251,3.8,5.8,71,0.00,CLR,,0.00,WeatherDisplay:10.37,2013-01-10 07:18:00,
2013-01-10 02:23:00,38.6,29.7,30.33,SW,226,2.1,6.9,70,0.00,CLR,,0.00,WeatherDisplay:10.37,2013-01-10 07:23:00,
2013-01-10 02:28:00,38.6,29.7,30.33,WSW,257,4.1,5.8,70,0.00,CLR,,0.00,WeatherDisplay:10.37,2013-01-10 07:28:00,
2013-01-10 02:33:00,38.7,29.4,30.34,WSW,238,1.9,2.3,69,0.00,CLR,,0.00,WeatherDisplay:10.37,2013-01-10 07:33:00,
2013-01-10 02:38:00,38.6,29.3,30.34,West,272,1.3,3.5,69,0.00,CLR,,0.00,WeatherDisplay:10.37,2013-01-10 07:38:00,
2013-01-10 02:43:00,38.4,29.1,30.35,West,270,1.7,3.5,69,0.00,CLR,,0.00,WeatherDisplay:10.37,2013-01-10 07:43:00,
2013-01-10 02:48:00,38.2,28.9,30.35,SW,235,2.9,3.5,69,0.00,CLR,,0.00,WeatherDisplay:10.37,2013-01-10 07:48:00,
2013-01-10 02:53:00,38.3,29.0,30.36,West,265,2.7,3.5,69,0.00,CLR,,0.00,WeatherDisplay:10.37,2013-01-10 07:53:00,
2013-01-10 02:58:00,38.2,28.9,30.36,WSW,247,3.4,3.5,69,0.00,CLR,,0.00,WeatherDisplay:10.37,2013-01-10 07:58:00,
2013-01-10 03:03:00,37.8,28.9,30.35,WSW,238,2.9,3.5,70,0.00,CLR,,0.00,WeatherDisplay:10.37,2013-01-10 08:03:00,
2013-01-10 03:08:00,38.3,29.0,30.36,West,278,4.0,6.9,69,0.00,CLR,,0.00,WeatherDisplay:10.37,2013-01-10 08:08:00,
2013-01-10 03:13:00,38.5,28.9,30.36,West,276,4.1,4.6,68,0.00,CLR,,0.00,WeatherDisplay:10.37,2013-01-10 08:13:00,
2013-01-10 03:18:00,38.9,28.9,30.36,West,276,4.4,6.9,67,0.00,CLR,,0.00,WeatherDisplay:10.37,2013-01-10 08:18:00,
2013-01-10 03:23:00,39.0,29.0,30.36,West,267,3.0,3.5,67,0.00,CLR,,0.00,WeatherDisplay:10.37,2013-01-10 08:23:00,
2013-01-10 03:40:00,39.7,29.0,30.37,WNW,285,5.0,13.0,65,0.00,,,0.01,weatherlink.com 1.10,2013-01-10 08:40:00,
2013-01-10 03:54:00,39.6,29.0,30.37,West,273,4.0,10.0,65,0.00,,,0.01,weatherlink.com 1.10,2013-01-10 08:54:00,
2013-01-10 04:09:00,39.7,28.0,30.37,WNW,299,3.0,10.0,64,0.00,,,0.01,weatherlink.com 1.10,2013-01-10 09:09:00,
2013-01-10 04:24:00,39.5,28.0,30.36,WSW,254,3.0,10.0,64,0.00,,,0.01,weatherlink.com 1.10,2013-01-10 09:24:00,
2013-01-10 04:39:00,40.0,29.0,30.36,WNW,300,10.0,16.0,64,0.00,,,0.01,weatherlink.com 1.10,2013-01-10 09:39:00,
2013-01-10 04:54:00,40.2,28.0,30.38,WNW,289,8.0,15.0,63,0.00,,,0.01,weatherlink.com 1.10,2013-01-10 09:54:00,
2013-01-10 05:09:00,39.8,28.0,30.38,WNW,292,2.0,14.0,63,0.00,,,0.01,weatherlink.com 1.10,2013-01-10 10:09:00,
2013-01-10 05:24:00,39.6,28.0,30.39,WNW,295,7.0,20.0,63,0.00,,,0.01,weatherlink.com 1.10,2013-01-10 10:24:00,
2013-01-10 05:39:00,39.1,28.0,30.39,WNW,286,7.0,10.0,64,0.00,,,0.01,weatherlink.com 1.10,2013-01-10 10:39:00,
2013-01-10 05:54:00,38.9,28.0,30.40,NW,315,6.0,13.0,64,0.00,,,0.01,weatherlink.com 1.10,2013-01-10 10:54:00,
2013-01-10 06:10:00,38.5,28.0,30.41,WSW,254,4.0,7.0,65,0.00,,,0.01,weatherlink.com 1.10,2013-01-10 11:10:00,
2013-01-10 06:25:00,38.6,27.0,30.41,SSW,211,2.0,9.0,64,0.00,,,0.01,weatherlink.com 1.10,2013-01-10 11:25:00,
2013-01-10 06:40:00,38.0,27.0,30.42,WSW,238,3.0,10.0,65,0.00,,,0.01,weatherlink.com 1.10,2013-01-10 11:40:00,
2013-01-10 06:54:00,38.2,27.0,30.43,NW,311,5.0,11.0,65,0.00,,,0.01,weatherlink.com 1.10,2013-01-10 11:54:00,
2013-01-10 07:09:00,38.1,27.0,30.42,West,277,16.0,22.0,65,0.00,,,0.01,weatherlink.com 1.10,2013-01-10 12:09:00,
2013-01-10 07:25:00,38.3,27.0,30.43,WNW,302,7.0,13.0,65,0.00,,,0.01,weatherlink.com 1.10,2013-01-10 12:25:00,
2013-01-10 07:40:00,38.4,27.0,30.44,WNW,296,9.0,14.0,65,0.00,,,0.01,weatherlink.com 1.10,2013-01-10 12:40:00,
2013-01-10 07:55:00,38.9,28.0,30.45,WNW,298,6.0,11.0,65,0.00,,,0.01,weatherlink.com 1.10,2013-01-10 12:55:00,
2013-01-10 08:10:00,39.2,28.0,30.46,NW,316,6.0,13.0,64,0.00,,,0.01,weatherlink.com 1.10,2013-01-10 13:10:00,
2013-01-10 08:25:00,39.5,29.0,30.47,WNW,298,2.0,10.0,65,0.00,,,0.01,weatherlink.com 1.10,2013-01-10 13:25:00,
2013-01-10 08:40:00,39.8,29.0,30.48,NW,315,5.0,9.0,65,0.00,,,0.01,weatherlink.com 1.10,2013-01-10 13:40:00,
2013-01-10 08:55:00,40.0,29.0,30.49,North,360,4.0,10.0,64,0.00,,,0.01,weatherlink.com 1.10,2013-01-10 13:55:00,
2013-01-10 09:10:00,40.5,29.0,30.50,North,360,6.0,8.0,63,0.00,,,0.00,weatherlink.com 1.10,2013-01-10 14:10:00,
2013-01-10 09:25:00,41.1,30.0,30.50,NNW,342,4.0,11.0,64,0.00,,,0.00,weatherlink.com 1.10,2013-01-10 14:25:00,
2013-01-10 09:40:00,41.8,28.0,30.50,NNW,331,11.0,20.0,59,0.00,,,0.00,weatherlink.com 1.10,2013-01-10 14:40:00,
2013-01-10 09:55:00,42.2,29.0,30.50,NW,315,9.0,18.0,59,0.00,,,0.00,weatherlink.com 1.10,2013-01-10 14:55:00,
2013-01-10 10:10:00,43.0,29.0,30.51,NW,323,10.0,14.0,58,0.00,,,0.00,weatherlink.com 1.10,2013-01-10 15:10:00,
2013-01-10 10:25:00,43.4,28.0,30.51,NNW,342,5.0,13.0,56,0.00,,,0.00,weatherlink.com 1.10,2013-01-10 15:25:00,
2013-01-10 10:40:00,44.0,29.0,30.51,NNW,336,8.0,14.0,57,0.00,,,0.00,weatherlink.com 1.10,2013-01-10 15:40:00,
2013-01-10 10:55:00,44.7,30.0,30.50,WNW,292,8.0,13.0,56,0.00,,,0.00,weatherlink.com 1.10,2013-01-10 15:55:00,
2013-01-10 11:10:00,44.9,29.0,30.49,NW,319,8.0,15.0,53,0.00,,,0.00,weatherlink.com 1.10,2013-01-10 16:10:00,
2013-01-10 11:25:00,45.2,28.0,30.49,NW,317,8.0,16.0,52,0.00,,,0.00,weatherlink.com 1.10,2013-01-10 16:25:00,
2013-01-10 11:40:00,44.9,29.0,30.49,WNW,297,9.0,16.0,54,0.00,,,0.00,weatherlink.com 1.10,2013-01-10 16:40:00,
2013-01-10 11:56:00,45.7,29.0,30.48,NW,314,10.0,17.0,52,0.00,,,0.00,weatherlink.com 1.10,2013-01-10 16:56:00,
2013-01-10 12:11:00,45.9,30.0,30.48,NNW,331,8.0,14.0,54,0.00,,,0.00,weatherlink.com 1.10,2013-01-10 17:11:00,
2013-01-10 12:26:00,46.2,29.0,30.48,North,355,10.0,16.0,52,0.00,,,0.00,weatherlink.com 1.10,2013-01-10 17:26:00,
2013-01-10 12:41:00,46.3,29.0,30.47,NW,323,7.0,14.0,51,0.00,,,0.00,weatherlink.com 1.10,2013-01-10 17:41:00,
2013-01-10 13:11:00,48.1,31.0,30.47,NW,312,4.0,11.0,51,0.00,,,0.00,weatherlink.com 1.10,2013-01-10 18:11:00,
2013-01-10 13:26:00,47.6,30.0,30.47,NNW,328,5.0,11.0,51,0.00,,,0.00,weatherlink.com 1.10,2013-01-10 18:26:00,
2013-01-10 13:41:00,48.8,30.0,30.47,WNW,294,8.0,9.0,48,0.00,,,0.00,weatherlink.com 1.10,2013-01-10 18:41:00,
2013-01-10 13:55:00,48.6,30.0,30.47,NNW,334,6.0,13.0,49,0.00,,,0.00,weatherlink.com 1.10,2013-01-10 18:55:00,
2013-01-10 14:10:00,49.4,30.0,30.48,WNW,303,4.0,10.0,48,0.00,,,0.00,weatherlink.com 1.10,2013-01-10 19:10:00,
2013-01-10 14:25:00,48.5,29.0,30.48,NW,325,6.0,13.0,48,0.00,,,0.00,weatherlink.com 1.10,2013-01-10 19:25:00,
2013-01-10 14:40:00,49.0,30.0,30.48,NNW,343,3.0,11.0,48,0.00,,,0.00,weatherlink.com 1.10,2013-01-10 19:40:00,
2013-01-10 14:55:00,49.0,29.0,30.48,NW,322,8.0,12.0,46,0.00,,,0.00,weatherlink.com 1.10,2013-01-10 19:55:00,
2013-01-10 15:10:00,49.0,30.0,30.49,NW,315,6.0,9.0,48,0.00,,,0.00,weatherlink.com 1.10,2013-01-10 20:10:00,
2013-01-10 15:26:00,48.6,28.0,30.48,WNW,297,5.0,10.0,46,0.00,,,0.00,weatherlink.com 1.10,2013-01-10 20:26:00,
2013-01-10 15:41:00,48.4,28.0,30.48,WNW,294,5.0,9.0,46,0.00,,,0.00,weatherlink.com 1.10,2013-01-10 20:41:00,
2013-01-10 15:56:00,48.0,29.0,30.48,WNW,290,4.0,7.0,48,0.00,,,0.00,weatherlink.com 1.10,2013-01-10 20:56:00,
2013-01-10 16:11:00,46.6,29.0,30.48,NW,324,3.0,5.0,51,0.00,,,0.00,weatherlink.com 1.10,2013-01-10 21:11:00,
2013-01-10 16:26:00,45.3,28.0,30.48,NW,305,4.0,5.0,51,0.00,,,0.00,weatherlink.com 1.10,2013-01-10 21:26:00,
2013-01-10 16:41:00,44.0,28.0,30.48,WNW,287,4.0,5.0,53,0.00,,,0.00,weatherlink.com 1.10,2013-01-10 21:41:00,
2013-01-10 17:11:00,40.2,27.0,30.49,NW,307,1.0,2.0,60,0.00,,,0.00,weatherlink.com 1.10,2013-01-10 22:11:00,
2013-01-10 17:26:00,38.0,27.0,30.50,NW,307,0.0,2.0,64,0.00,,,0.00,weatherlink.com 1.10,2013-01-10 22:26:00,
2013-01-10 17:41:00,36.4,26.0,30.50,NW,307,2.0,2.0,66,0.00,,,0.00,weatherlink.com 1.10,2013-01-10 22:41:00,
2013-01-10 17:56:00,34.1,26.0,30.51,NNW,329,1.0,2.0,72,0.00,,,0.00,weatherlink.com 1.10,2013-01-10 22:56:00,
2013-01-10 18:11:00,33.1,26.0,30.51,NNW,329,1.0,2.0,74,0.00,,,0.00,weatherlink.com 1.10,2013-01-10 23:11:00,
2013-01-10 18:26:00,31.9,25.0,30.52,NNW,329,1.0,2.0,77,0.00,,,0.00,weatherlink.com 1.10,2013-01-10 23:26:00,
2013-01-10 18:41:00,31.3,26.0,30.52,NNW,329,0.0,1.0,80,0.00,,,0.00,weatherlink.com 1.10,2013-01-10 23:41:00,
2013-01-10 18:56:00,30.6,25.0,30.52,NNW,329,0.0,3.0,81,0.00,,,0.00,weatherlink.com 1.10,2013-01-10 23:56:00,
2013-01-10 19:11:00,30.3,25.0,30.51,North,5,2.0,4.0,82,0.00,,,0.00,weatherlink.com 1.10,2013-01-11 00:11:00,
2013-01-10 19:26:00,29.8,25.0,30.51,NE,34,2.0,3.0,83,0.00,,,0.00,weatherlink.com 1.10,2013-01-11 00:26:00,
2013-01-10 19:41:00,29.4,26.0,30.51,SSE,155,1.0,4.0,86,0.00,,,0.00,weatherlink.com 1.10,2013-01-11 00:41:00,
2013-01-10 19:56:00,29.2,25.0,30.52,NW,308,0.0,3.0,85,0.00,,,0.00,weatherlink.com 1.10,2013-01-11 00:56:00,
2013-01-10 20:11:00,29.3,26.0,30.52,NNW,334,2.0,3.0,87,0.00,,,0.00,weatherlink.com 1.10,2013-01-11 01:11:00,
2013-01-10 20:26:00,29.4,26.0,30.53,SSE,157,2.0,2.0,86,0.00,,,0.00,weatherlink.com 1.10,2013-01-11 01:26:00,
2013-01-10 20:42:00,29.9,27.0,30.52,NNW,332,2.0,3.0,87,0.00,,,0.00,weatherlink.com 1.10,2013-01-11 01:42:00,
2013-01-10 20:57:00,30.2,27.0,30.51,SE,143,3.0,4.0,87,0.00,,,0.00,weatherlink.com 1.10,2013-01-11 01:57:00,
2013-01-10 21:12:00,30.2,27.0,30.50,West,274,3.0,3.0,87,0.00,,,0.00,weatherlink.com 1.10,2013-01-11 02:12:00,
2013-01-10 21:26:00,31.0,27.0,30.52,SSE,166,1.0,3.0,86,0.00,,,0.00,weatherlink.com 1.10,2013-01-11 02:26:00,
2013-01-10 21:41:00,30.9,27.0,30.51,North,5,2.0,3.0,86,0.00,,,0.00,weatherlink.com 1.10,2013-01-11 02:41:00,
2013-01-10 21:57:00,31.0,27.0,30.51,NW,319,2.0,3.0,86,0.00,,,0.00,weatherlink.com 1.10,2013-01-11 02:57:00,
2013-01-10 22:11:00,31.1,27.0,30.51,NNE,15,0.0,2.0,86,0.00,,,0.00,weatherlink.com 1.10,2013-01-11 03:11:00,
2013-01-10 22:26:00,31.3,27.0,30.51,NNE,17,0.0,1.0,85,0.00,,,0.00,weatherlink.com 1.10,2013-01-11 03:26:00,
2013-01-10 22:41:00,30.7,27.0,30.52,NNE,17,1.0,2.0,87,0.00,,,0.00,weatherlink.com 1.10,2013-01-11 03:41:00,
2013-01-10 22:56:00,30.5,27.0,30.52,NE,41,1.0,3.0,86,0.00,,,0.00,weatherlink.com 1.10,2013-01-11 03:56:00,
2013-01-10 23:11:00,30.2,27.0,30.52,NE,34,1.0,3.0,87,0.00,,,0.00,weatherlink.com 1.10,2013-01-11 04:11:00,
2013-01-10 23:26:00,29.9,27.0,30.52,NNE,13,0.0,1.0,89,0.00,,,0.00,weatherlink.com 1.10,2013-01-11 04:26:00,
2013-01-10 23:41:00,29.8,27.0,30.52,North,360,0.0,3.0,89,0.00,,,0.00,weatherlink.com 1.10,2013-01-11 04:41:00,
2013-01-10 23:56:00,29.6,27.0,30.52,NNW,348,1.0,2.0,89,0.00,,,0.00,weatherlink.com 1.10,2013-01-11 04:56:00,